1505599200.55,11130,13.44,73732.8,3.25,2.51,2.51,0,*7B
1505599201.81,11131,13.44,73728.3,3.27,2.51,2.51,0,*78
1505599203.05,11132,13.44,73734.3,3.27,2.55,2.55,0,*7B
1505599204.3,11133,13.44,73742.5,3.27,2.55,2.55,0,*7A
1505599205.55,11134,13.44,73748.0,3.27,2.55,2.55,0,*7D
1505599206.8,11135,13.44,73738.3,3.27,2.51,2.51,0,*7C
1505599208.06,11136,13.44,73754.8,3.27,2.43,2.43,0,*7F
1505599209.3,11137,13.44,73752.3,3.27,2.55,2.55,0,*7E
1505599210.53,11138,13.44,73778.3,3.29,2.59,2.59,0,*7F
1505599211.79,11139,13.44,73792.8,3.27,2.55,2.51,0,*74
1505599213.04,11140,13.44,73764.3,3.27,2.39,2.39,0,*7E
1505599214.27,11141,13.44,73728.5,3.27,2.27,2.39,0,*70
1505599215.48,11142,13.44,73732.3,3.25,2.21,2.21,0,*7E
1505599216.71,11143,13.44,73694.0,3.25,2.17,2.21,0,*7A
1505599217.9,11144,13.44,73684.5,3.25,2.27,2.21,0,*7E
1505599219.14,11145,13.44,73676.3,3.21,2.17,2.25,0,*7C
1505599220.33,11146,13.44,73680.8,3.21,2.25,2.27,0,*7C
1505599221.51,11147,13.44,73686.3,3.21,2.35,2.27,0,*7C
1505599222.68,11148,13.44,73684.8,3.21,2.27,2.27,0,*70
1505599223.86,11149,13.44,73686.8,3.21,2.27,2.27,0,*71
1505599225.06,11150,13.44,73716.8,3.21,2.25,2.27,0,*7B
1505599226.26,11151,13.44,73736.3,3.21,2.35,2.47,0,*7D
1505599227.49,11152,13.44,73710.5,3.21,2.47,2.47,0,*7B
1505599228.66,11153,13.44,73706.0,3.21,2.27,2.27,0,*7A
1505599229.84,11154,13.44,73706.8,3.21,2.35,2.35,0,*7D
1505599231.01,11155,13.44,73712.3,3.21,2.35,2.27,0,*7F
1505599232.24,11156,13.44,73730.3,3.25,2.51,2.39,0,*75
1505599233.46,11157,13.44,73740.8,3.21,2.47,2.47,0,*7E
1505599234.69,11158,13.44,73748.3,3.21,2.47,2.47,0,*71
1505599235.9,11159,13.44,73724.8,3.21,2.39,2.35,0,*7C
1505599237.07,11160,13.44,73720.0,3.21,2.35,2.35,0,*7A
1505599238.3,11161,13.44,73696.5,3.21,2.17,2.17,0,*7B
1505599239.56,11162,13.44,73682.0,3.19,2.25,2.17,0,*72
1505599240.73,11163,13.44,73708.0,3.21,2.27,2.27,0,*79
1505599241.94,11164,13.44,73720.0,3.21,2.39,2.35,0,*72
1505599243.17,11165,13.44,73710.3,3.21,2.39,2.39,0,*7F
1505599244.42,11166,13.44,73692.5,3.19,2.17,2.25,0,*76
1505599245.59,11167,13.44,73746.8,3.17,2.31,2.31,0,*78
1505599246.84,11168,13.44,73724.8,3.19,2.47,2.47,0,*79
1505599248.07,11169,13.44,73722.0,3.21,2.55,2.55,0,*73
1505599249.3,11170,13.44,73750.3,3.21,2.55,2.51,0,*7F
1505599250.53,11171,13.44,73718.3,3.21,2.51,2.51,0,*7A
1505599251.76,11172,13.44,73682.8,3.21,2.51,2.47,0,*7E
1505599253.01,11173,13.44,73682.5,3.19,2.39,2.39,0,*73
1505599254.25,11174,13.44,73714.5,3.17,2.43,2.43,0,*7A
1505599255.5,11175,13.44,73708.3,3.19,2.55,2.51,0,*71
1505599256.72,11176,13.44,73706.5,3.21,2.55,2.55,0,*7D
1505599257.96,11177,13.44,73714.8,3.21,2.51,2.51,0,*7C
1505599259.18,11178,13.44,73712.0,3.25,2.59,2.55,0,*7B
1505599260.41,11179,13.44,73706.3,3.21,2.51,2.51,0,*72
1505599261.64,11180,13.44,73708.8,3.21,2.47,2.47,0,*74
1505599262.85,11181,13.44,73708.3,3.21,2.35,2.39,0,*79
1505599264.04,11182,13.44,73708.3,3.19,2.35,2.35,0,*7D
1505599265.24,11183,13.44,73712.0,3.19,2.35,2.35,0,*7C
1505599266.49,11184,13.44,73716.0,3.19,2.39,2.39,0,*7B
1505599267.74,11185,13.44,73708.5,3.19,2.47,2.47,0,*7A
1505599268.99,11186,13.44,73710.0,3.19,2.47,2.47,0,*79
1505599270.24,11187,13.44,73708.5,3.19,2.47,2.47,0,*78
1505599271.47,11188,13.44,73720.5,3.19,2.35,2.39,0,*7B
1505599272.72,11189,13.44,73708.3,3.19,2.39,2.47,0,*7F
1505599273.97,11190,13.44,73698.3,3.19,2.39,2.39,0,*7E
1505599275.17,11191,13.44,73684.3,3.19,2.27,2.27,0,*7F
1505599276.4,11192,13.44,73692.5,3.19,2.17,2.27,0,*7F
1505599277.65,11193,13.44,73692.8,3.19,2.17,2.25,0,*7C
1505599278.88,11194,13.44,73726.3,3.19,2.39,2.35,0,*76
1505599280.13,11195,13.44,73740.8,3.19,2.47,2.47,0,*7B
1505599281.36,11196,13.44,73746.0,3.17,2.47,2.47,0,*76
1505599282.58,11197,13.44,73724.5,3.17,2.47,2.47,0,*77
1505599283.84,11198,13.44,73720.0,3.19,2.55,2.51,0,*72
1505599285.07,11199,13.44,73700.0,3.21,2.55,2.51,0,*78
1505599286.32,11200,13.44,73694.8,3.19,2.39,2.47,0,*7D
1505599287.57,11201,13.44,73732.8,3.19,2.47,2.47,0,*75
1505599288.79,11202,13.44,73714.0,3.21,2.55,2.55,0,*7D
1505599289.97,11203,13.44,73684.8,3.25,2.61,2.61,0,*78
1505599291.21,11204,13.44,73690.0,3.21,2.51,2.51,0,*7B
1505599292.44,11205,13.44,73698.0,3.21,2.47,2.51,0,*7D
1505599293.68,11206,13.44,73708.3,3.21,2.47,2.51,0,*7E
1505599294.91,11207,13.44,73732.3,3.21,2.47,2.51,0,*7F
1505599296.14,11208,13.44,73690.3,3.21,2.39,2.51,0,*79
1505599297.37,11209,13.44,73690.5,3.21,2.39,2.47,0,*7F
1505599298.6,11210,13.44,73706.0,3.21,2.47,2.47,0,*7E
1505599299.85,11211,13.44,73702.0,3.19,2.47,2.47,0,*74
1505599301.1,11212,13.44,73694.5,3.19,2.39,2.39,0,*77
1505599302.35,11213,13.44,73702.5,3.19,2.39,2.47,0,*7F
1505599303.53,11214,13.44,73686.0,3.21,2.35,2.27,0,*79
1505599304.71,11215,13.44,73680.8,3.21,2.27,2.35,0,*78
1505599305.9,11216,13.44,73698.8,3.19,2.35,2.27,0,*70
1505599307.1,11217,13.44,73644.0,3.19,2.27,2.35,0,*71
1505599308.32,11218,13.44,73646.0,3.19,2.25,2.27,0,*7F
1505599309.52,11219,13.44,73678.3,3.19,2.35,2.27,0,*7F
1505599310.74,11220,13.44,73674.8,3.19,2.39,2.35,0,*7A
1505599311.94,11221,13.44,73678.3,3.19,2.27,2.27,0,*77
1505599313.14,11222,13.44,73678.5,3.19,2.35,2.35,0,*74
1505599314.33,11223,13.44,73696.5,3.19,2.27,2.27,0,*75
1505599315.56,11224,13.44,73676.3,3.17,2.21,2.25,0,*78
1505599316.76,11225,13.44,73692.8,3.19,2.27,2.35,0,*70
1505599317.93,11226,13.44,73698.8,3.17,2.35,2.31,0,*7A
1505599319.1,11227,13.44,73712.8,3.17,2.31,2.31,0,*7F
1505599320.27,11228,13.44,73702.5,3.17,2.31,2.31,0,*70
1505599321.44,11229,13.44,73694.5,3.17,2.35,2.35,0,*71
1505599322.7,11230,13.44,73648.5,3.19,2.39,2.39,0,*77
1505599323.87,11231,13.44,73664.8,3.17,2.31,2.31,0,*78
1505599325.12,11232,13.44,73682.0,3.19,2.39,2.47,0,*7C
1505599326.35,11233,13.44,73694.5,3.17,2.43,2.43,0,*7A
1505599327.58,11234,13.44,73706.0,3.17,2.47,2.43,0,*79
1505599328.83,11235,13.44,73728.0,3.19,2.55,2.51,0,*76
1505599330.06,11236,13.44,73720.3,3.17,2.51,2.47,0,*78
1505599331.29,11237,13.44,73740.8,3.17,2.47,2.47,0,*7E
1505599332.55,11238,13.44,73738.0,3.19,2.51,2.51,0,*7F
1505599333.81,11239,13.44,73718.5,3.19,2.51,2.51,0,*7E
1505599335.06,11240,13.44,73718.8,3.19,2.51,2.55,0,*74
1505599336.31,11241,13.44,73722.0,3.19,2.51,2.51,0,*71
1505599337.57,11242,13.44,73712.5,3.19,2.51,2.51,0,*72
1505599338.82,11243,13.44,73722.0,3.19,2.51,2.47,0,*74
1505599340.08,11244,13.44,73724.0,3.19,2.51,2.51,0,*74
1505599341.31,11245,13.44,73730.3,3.17,2.47,2.47,0,*7B
1505599342.56,11246,13.44,73732.0,3.19,2.47,2.47,0,*76
1505599343.81,11247,13.44,73738.3,3.19,2.47,2.47,0,*77
1505599345.07,11248,13.44,73736.3,3.19,2.47,2.51,0,*7F
1505599346.32,11249,13.44,73738.0,3.19,2.47,2.51,0,*7E
1505599347.56,11250,13.44,73740.3,3.19,2.51,2.61,0,*72
1505599348.76,11251,13.44,73740.5,3.25,2.59,2.65,0,*70
1505599349.98,11252,13.44,73746.8,3.21,2.55,2.55,0,*78
1505599351.18,11253,13.44,73742.5,3.21,2.61,2.55,0,*7E
1505599352.39,11254,13.44,73750.8,3.21,2.55,2.61,0,*79
1505599353.57,11255,13.44,73750.5,3.21,2.61,2.61,0,*7F
1505599354.76,11256,13.44,73750.0,3.21,2.61,2.61,0,*7C
1505599355.94,11257,13.44,73742.5,3.21,2.65,2.61,0,*79
1505599357.15,11258,13.44,73740.5,3.19,2.65,2.61,0,*7D
1505599358.38,11259,13.44,73734.3,3.21,2.51,2.47,0,*74
1505599359.61,11260,13.44,73726.3,3.21,2.39,2.39,0,*79
1505599360.84,11261,13.44,73736.5,3.21,2.39,2.47,0,*71
1505599362.09,11262,13.44,73746.0,3.19,2.47,2.47,0,*70
1505599363.32,11263,13.44,73750.0,3.21,2.51,2.51,0,*7A
1505599364.56,11264,13.44,73738.5,3.21,2.51,2.51,0,*7D
1505599365.78,11265,13.44,73732.0,3.25,2.55,2.55,0,*78
1505599367.01,11266,13.44,73720.5,3.21,2.39,2.47,0,*76
1505599368.24,11267,13.44,73710.0,3.21,2.47,2.47,0,*7E
1505599369.46,11268,13.44,73718.3,3.21,2.47,2.47,0,*71
1505599370.69,11269,13.44,73726.3,3.21,2.47,2.47,0,*70
1505599371.92,11270,13.44,73736.8,3.25,2.47,2.51,0,*7B
1505599373.15,11271,13.44,73732.0,3.21,2.55,2.51,0,*7D
1505599374.41,11272,13.44,73740.5,3.19,2.51,2.51,0,*71
1505599375.66,11273,13.44,73732.5,3.19,2.55,2.51,0,*74
1505599376.92,11274,13.44,73718.8,3.19,2.55,2.51,0,*73
1505599378.15,11275,13.44,73720.8,3.21,2.51,2.51,0,*7D
1505599379.38,11276,13.44,73718.8,3.21,2.51,2.51,0,*7E
1505599380.61,11277,13.38,73722.5,3.25,2.51,2.55,0,*7F
1505599381.83,11278,13.44,73726.3,3.21,2.55,2.55,0,*70
1505599383.06,11279,13.44,73704.0,3.21,2.55,2.51,0,*75
1505599384.32,11280,13.44,73724.8,3.19,2.51,2.51,0,*7C
1505599385.55,11281,13.44,73732.3,3.21,2.51,2.55,0,*72
1505599386.78,11282,13.44,73732.8,3.21,2.51,2.51,0,*75
1505599388.0,11283,13.38,73732.5,3.25,2.55,2.55,0,*70
1505599389.23,11284,13.44,73730.0,3.21,2.55,2.55,0,*73
1505599390.48,11285,13.44,73724.0,3.19,2.51,2.55,0,*7D
1505599391.73,11286,13.44,73718.8,3.19,2.51,2.55,0,*7E
1505599392.95,11287,13.44,73722.3,3.21,2.55,2.55,0,*70
1505599394.15,11288,13.44,73736.3,3.21,2.61,2.55,0,*78
1505599395.33,11289,13.44,73744.8,3.21,2.61,2.65,0,*7A
1505599396.53,11290,13.44,73752.0,3.25,2.65,2.77,0,*71
1505599397.72,11291,13.44,73750.3,3.21,2.65,2.65,0,*77
1505599398.9,11292,13.44,73750.8,3.21,2.65,2.65,0,*74
1505599400.12,11293,13.44,73752.0,3.25,2.69,2.77,0,*7E
1505599401.35,11294,13.44,73764.3,3.25,2.69,2.77,0,*79
1505599402.59,11295,13.44,73750.0,3.27,2.77,2.77,0,*75
1505599403.8,11296,13.44,73766.5,3.27,2.65,2.65,0,*76
1505599405.0,11297,13.44,73784.0,3.25,2.55,2.65,0,*76
1505599406.18,11298,13.44,73760.5,3.25,2.65,2.65,0,*7A
1505599407.39,11299,13.44,73760.0,3.25,2.59,2.65,0,*74
1505599408.61,11300,13.44,73752.5,3.25,2.55,2.55,0,*7A
1505599409.83,11301,13.44,73754.3,3.25,2.55,2.55,0,*7B
1505599411.05,11302,13.44,73726.0,3.25,2.51,2.43,0,*7B
1505599412.28,11303,13.44,73724.5,3.25,2.51,2.51,0,*79
1505599413.52,11304,13.44,73730.8,3.25,2.51,2.51,0,*7E
1505599414.74,11305,13.38,73728.0,3.21,2.47,2.47,0,*7B
1505599415.97,11306,13.44,73738.0,3.25,2.55,2.51,0,*78
1505599417.21,11307,13.44,73734.5,3.21,2.51,2.51,0,*79
1505599418.43,11308,13.44,73734.5,3.25,2.55,2.55,0,*72
1505599419.65,11309,13.44,73732.8,3.25,2.55,2.59,0,*7F
1505599420.87,11310,13.38,73732.0,3.25,2.55,2.59,0,*77
1505599422.09,11311,13.44,73726.0,3.25,2.55,2.55,0,*7A
1505599423.32,11312,13.44,73716.5,3.25,2.43,2.51,0,*7A
1505599424.55,11313,13.44,73724.0,3.21,2.39,2.39,0,*7C
1505599425.78,11314,13.38,73718.0,3.25,2.51,2.51,0,*7F
1505599427.0,11315,13.44,73716.5,3.25,2.55,2.55,0,*7E
1505599428.21,11316,13.44,73714.0,3.21,2.55,2.61,0,*7E
1505599429.42,11317,13.44,73714.8,3.21,2.51,2.61,0,*7B
1505599430.64,11318,13.44,73720.8,3.25,2.55,2.59,0,*7F
1505599431.85,11319,13.44,73726.8,3.25,2.65,2.59,0,*7D
1505599433.07,11320,13.44,73732.5,3.25,2.59,2.59,0,*78
1505599434.28,11321,13.44,73730.8,3.25,2.59,2.65,0,*76
1505599435.53,11322,13.44,73718.8,3.27,2.55,2.59,0,*74
1505599436.78,11323,13.44,73728.5,3.27,2.51,2.51,0,*79
1505599438.01,11324,13.44,73718.5,3.25,2.51,2.51,0,*7C
1505599439.25,11325,13.44,73698.5,3.21,2.47,2.51,0,*7E
1505599440.48,11326,13.38,73690.8,3.25,2.51,2.51,0,*7E
1505599441.71,11327,13.44,73676.8,3.25,2.39,2.43,0,*72
1505599442.94,11328,13.44,73688.0,3.21,2.39,2.39,0,*74
1505599444.11,11329,13.44,73680.3,3.21,2.35,2.35,0,*75
1505599445.34,11330,13.44,73680.8,3.21,2.39,2.47,0,*74
1505599446.54,11331,13.44,73692.5,3.21,2.39,2.35,0,*70
1505599447.77,11332,13.44,73694.8,3.21,2.39,2.39,0,*7F
1505599448.97,11333,13.44,73716.0,3.21,2.35,2.43,0,*7F
1505599450.2,11334,13.38,73710.8,3.25,2.51,2.51,0,*7D
1505599451.44,11335,13.44,73708.8,3.25,2.51,2.51,0,*7C
1505599452.66,11336,13.44,73702.3,3.21,2.47,2.47,0,*7B
1505599453.89,11337,13.44,73706.0,3.21,2.51,2.47,0,*7D
1505599455.12,11338,13.44,73706.8,3.21,2.51,2.47,0,*72
1505599456.36,11339,13.44,73716.8,3.21,2.51,2.51,0,*74
1505599457.58,11340,13.44,73722.3,3.25,2.59,2.59,0,*7E
1505599458.78,11341,13.44,73740.0,3.21,2.61,2.55,0,*7C
1505599459.96,11342,13.44,73750.5,3.21,2.65,2.65,0,*78
1505599461.14,11343,13.44,73752.5,3.25,2.61,2.65,0,*79
1505599462.35,11344,13.44,73756.3,3.21,2.69,2.61,0,*76
1505599463.57,11345,13.44,73752.0,3.25,2.69,2.69,0,*7B
1505599464.79,11346,13.44,73746.0,3.25,2.69,2.69,0,*78
1505599465.96,11347,13.44,73752.3,3.25,2.65,2.65,0,*79
1505599467.17,11348,13.44,73722.3,3.25,2.59,2.65,0,*79
1505599468.39,11349,13.38,73704.3,3.25,2.55,2.55,0,*77
1505599469.61,11350,13.44,73742.5,3.25,2.55,2.55,0,*7F
1505599470.81,11351,13.44,73728.3,3.21,2.39,2.35,0,*76
1505599472.04,11352,13.38,73714.0,3.21,2.47,2.47,0,*79
1505599473.26,11353,13.38,73700.5,3.25,2.39,2.43,0,*71
1505599474.47,11354,13.44,73734.5,3.21,2.35,2.39,0,*73
1505599475.69,11355,13.44,73732.8,3.25,2.43,2.43,0,*7A
1505599476.93,11356,13.44,73720.3,3.21,2.43,2.39,0,*70
1505599478.1,11357,13.38,73714.8,3.21,2.35,2.27,0,*7F
1505599479.33,11358,13.38,73716.0,3.21,2.47,2.47,0,*73
1505599480.56,11359,13.44,73710.0,3.21,2.47,2.51,0,*75
1505599481.79,11360,13.44,73714.8,3.21,2.39,2.39,0,*78
1505599482.99,11361,13.44,73712.0,3.21,2.35,2.47,0,*7C
1505599484.19,11362,13.44,73720.3,3.21,2.35,2.39,0,*76
1505599485.42,11363,13.44,73738.0,3.21,2.47,2.47,0,*7B
1505599486.65,11364,13.44,73750.5,3.21,2.47,2.47,0,*7C
1505599487.88,11365,13.44,73758.5,3.21,2.55,2.51,0,*79
1505599489.1,11366,13.44,73770.0,3.21,2.55,2.55,0,*7E
1505599490.33,11367,13.44,73770.8,3.21,2.55,2.55,0,*7F
1505599491.51,11368,13.44,73770.5,3.21,2.61,2.61,0,*70
1505599492.73,11369,13.38,73762.0,3.25,2.55,2.55,0,*75
1505599493.96,11370,13.44,73752.8,3.21,2.51,2.51,0,*79
1505599495.19,11371,13.44,73732.8,3.21,2.47,2.47,0,*78
1505599496.42,11372,13.44,73738.3,3.21,2.47,2.47,0,*7B
1505599497.64,11373,13.44,73728.0,3.25,2.47,2.47,0,*7E
1505599498.87,11374,13.44,73736.0,3.21,2.55,2.47,0,*7E
1505599500.09,11375,13.44,73728.0,3.25,2.55,2.55,0,*78
1505599501.31,11376,13.38,73736.0,3.25,2.55,2.55,0,*7B
1505599502.53,11377,13.44,73754.0,3.25,2.55,2.55,0,*7A
1505599503.75,11378,13.44,73730.0,3.25,2.55,2.55,0,*75
1505599504.97,11379,13.44,73726.8,3.25,2.59,2.55,0,*78
1505599506.2,11380,13.38,73722.5,3.25,2.51,2.55,0,*76
1505599507.42,11381,13.38,73734.0,3.25,2.55,2.59,0,*7F
1505599508.65,11382,13.44,73730.0,3.21,2.51,2.51,0,*74
1505599509.88,11383,13.44,73700.5,3.25,2.51,2.55,0,*75
1505599511.11,11384,13.38,73752.0,3.21,2.51,2.51,0,*72
1505599512.35,11385,13.44,73724.5,3.21,2.51,2.51,0,*73
1505599513.58,11386,13.44,73722.0,3.21,2.51,2.51,0,*70
1505599514.82,11387,13.44,73714.8,3.21,2.51,2.51,0,*71
1505599516.04,11388,13.44,73718.5,3.25,2.51,2.55,0,*7E
1505599517.27,11389,13.44,73738.5,3.25,2.39,2.39,0,*7B
1505599518.5,11390,13.44,73734.8,3.25,2.43,2.43,0,*73
1505599519.72,11391,13.38,73746.5,3.25,2.25,2.25,0,*72
1505599520.89,11392,13.44,73724.3,3.25,2.31,2.31,0,*71
1505599522.06,11393,13.44,73720.8,3.25,2.27,2.31,0,*77
1505599523.23,11394,13.44,73738.0,3.21,2.35,2.35,0,*73
1505599524.46,11395,13.44,73738.8,3.25,2.39,2.39,0,*76
1505599525.69,11396,13.44,73706.8,3.21,2.17,2.17,0,*71
1505599526.89,11397,13.38,73740.0,3.21,2.35,2.25,0,*71
1505599528.07,11398,13.38,73720.3,3.21,2.27,2.35,0,*7C
1505599529.3,11399,13.44,73738.0,3.21,2.13,2.01,0,*7D
1505599530.53,11400,13.38,73700.8,3.21,2.13,2.13,0,*79
1505599531.78,11401,13.44,73696.0,3.19,2.05,2.13,0,*74
1505599533.03,11402,13.38,73706.0,3.19,2.05,2.13,0,*77
1505599534.25,11403,13.44,73722.5,3.19,2.25,2.31,0,*74
1505599535.43,11404,13.44,73724.0,3.17,2.31,2.35,0,*7C
1505599536.68,11405,13.44,73708.3,3.19,2.47,2.39,0,*7E
1505599537.93,11406,13.44,73698.3,3.19,2.39,2.47,0,*7D
1505599539.15,11407,13.44,73676.5,3.19,2.35,2.39,0,*79
1505599540.33,11408,13.44,73716.8,3.17,2.35,2.35,0,*74
1505599541.56,11409,13.44,73726.8,3.17,2.43,2.43,0,*75
1505599542.81,11410,13.44,73714.3,3.19,2.47,2.47,0,*73
1505599544.06,11411,13.38,73738.5,3.19,2.47,2.47,0,*72
1505599545.32,11412,13.44,73734.0,3.19,2.51,2.51,0,*71
1505599546.55,11413,13.44,73738.0,3.21,2.51,2.47,0,*7C
1505599547.8,11414,13.44,73718.8,3.19,2.47,2.47,0,*77
1505599549.05,11415,13.44,73726.3,3.19,2.47,2.47,0,*76
1505599550.31,11416,13.38,73726.5,3.19,2.51,2.51,0,*75
1505599551.56,11417,13.44,73738.3,3.19,2.51,2.55,0,*70
1505599552.78,11418,13.44,73754.0,3.17,2.47,2.47,0,*75
1505599554.01,11419,13.44,73740.5,3.19,2.55,2.61,0,*7D
1505599555.24,11420,13.44,73748.5,3.21,2.55,2.55,0,*7B
1505599556.46,11421,13.44,73756.5,3.21,2.55,2.55,0,*7A
1505599557.69,11422,13.44,73776.5,3.21,2.51,2.55,0,*7D
1505599558.89,11423,13.38,73768.0,3.21,2.55,2.65,0,*7B
1505599560.12,11424,13.44,73750.8,3.21,2.55,2.55,0,*7F
1505599561.34,11425,13.44,73738.0,3.21,2.59,2.55,0,*72
1505599562.56,11426,13.44,73724.0,3.25,2.55,2.55,0,*79
1505599563.81,11427,13.44,73728.5,3.19,2.47,2.47,0,*77
1505599565.07,11428,13.44,73728.0,3.19,2.51,2.51,0,*78
1505599566.3,11429,13.44,73724.3,3.21,2.55,2.51,0,*76
1505599567.53,11430,13.38,73722.8,3.21,2.55,2.55,0,*7A
1505599568.71,11431,13.44,73726.5,3.21,2.61,2.61,0,*7B
1505599569.89,11432,13.44,73726.5,3.21,2.61,2.65,0,*7C
1505599571.07,11433,13.44,73726.3,3.21,2.61,2.61,0,*79
1505599572.26,11434,13.44,73732.5,3.21,2.61,2.61,0,*7E
1505599573.47,11435,13.38,73740.0,3.25,2.69,2.69,0,*7B
1505599574.67,11436,13.38,73738.5,3.25,2.65,2.69,0,*74
1505599575.91,11437,13.38,73732.5,3.21,2.51,2.51,0,*7D
1505599577.13,11438,13.44,73734.0,3.25,2.55,2.55,0,*76
1505599578.36,11439,13.44,73736.5,3.21,2.55,2.51,0,*77
1505599579.58,11440,13.38,73736.0,3.21,2.55,2.55,0,*7D
1505599580.78,11441,13.44,73738.0,3.21,2.61,2.55,0,*7B
1505599582.0,11442,13.44,73730.3,3.25,2.55,2.55,0,*7B
1505599583.23,11443,13.44,73726.3,3.25,2.55,2.51,0,*7E
1505599584.45,11444,13.44,73726.0,3.25,2.55,2.55,0,*7D
1505599585.68,11445,13.44,73730.3,3.21,2.55,2.51,0,*7C
1505599586.9,11446,13.44,73724.3,3.21,2.55,2.55,0,*7B
1505599588.14,11447,13.44,73730.8,3.21,2.51,2.51,0,*7A
1505599589.36,11448,13.44,73726.5,3.25,2.55,2.55,0,*71
1505599590.59,11449,13.44,73724.8,3.21,2.51,2.51,0,*74
1505599591.82,11450,13.44,73728.0,3.21,2.51,2.55,0,*78
1505599593.05,11451,13.44,73726.8,3.21,2.51,2.55,0,*79
1505599594.28,11452,13.44,73726.3,3.21,2.55,2.51,0,*7A
1505599595.48,11453,13.44,73730.5,3.21,2.61,2.55,0,*78
1505599596.7,11454,13.38,73726.0,3.25,2.55,2.55,0,*7C
1505599597.87,11455,13.44,73726.5,3.21,2.27,2.35,0,*7A
1505599599.08,11456,13.44,73726.3,3.21,2.35,2.39,0,*76
1505599600.3,11457,13.44,73720.5,3.25,2.43,2.43,0,*7F
1505599601.53,11458,13.44,73720.5,3.21,2.39,2.39,0,*74
1505599602.76,11459,13.44,73726.3,3.21,2.47,2.39,0,*7C
1505599603.99,11460,13.44,73724.0,3.21,2.47,2.47,0,*7F
1505599605.22,11461,13.44,73722.5,3.21,2.39,2.39,0,*7E
1505599606.46,11462,13.38,73722.5,3.21,2.47,2.51,0,*7A
1505599607.69,11463,13.44,73724.8,3.21,2.47,2.51,0,*7B
1505599608.91,11464,13.44,73726.3,3.25,2.55,2.59,0,*73
1505599610.14,11465,13.44,73732.3,3.21,2.55,2.55,0,*7A
1505599611.36,11466,13.44,73752.8,3.21,2.55,2.55,0,*79
1505599612.6,11467,13.44,73752.5,3.21,2.51,2.51,0,*78
1505599613.83,11468,13.38,73758.8,3.21,2.51,2.51,0,*77
1505599615.06,11469,13.44,73748.0,3.21,2.51,2.51,0,*76
1505599616.29,11470,13.38,73738.3,3.25,2.55,2.51,0,*7E
1505599617.53,11471,13.44,73738.3,3.21,2.51,2.51,0,*7F
1505599618.75,11472,13.44,73736.8,3.21,2.51,2.55,0,*78
1505599619.98,11473,13.44,73746.5,3.21,2.55,2.55,0,*7D
1505599621.21,11474,13.44,73748.0,3.21,2.51,2.51,0,*7A
1505599622.45,11475,13.44,73742.5,3.21,2.51,2.51,0,*7B
1505599623.67,11476,13.38,73734.3,3.25,2.59,2.55,0,*70
1505599624.89,11477,13.44,73728.3,3.25,2.51,2.55,0,*79
1505599626.12,11478,13.38,73722.0,3.25,2.59,2.55,0,*7E
1505599627.29,11479,13.38,73724.3,3.25,2.27,2.27,0,*73
1505599628.49,11480,13.44,73734.3,3.21,2.35,2.39,0,*7D
1505599629.72,11481,13.44,73734.0,3.25,2.51,2.51,0,*74
1505599630.95,11482,13.44,73744.0,3.21,2.47,2.47,0,*73
1505599632.17,11483,13.44,73736.0,3.21,2.55,2.55,0,*72
1505599633.38,11484,13.38,73730.3,3.25,2.65,2.59,0,*7E
1505599634.56,11485,13.44,73726.5,3.25,2.65,2.65,0,*70
1505599635.79,11486,13.38,73718.5,3.21,2.51,2.51,0,*77
1505599636.98,11487,13.44,73708.0,3.21,2.61,2.61,0,*76
1505599638.16,11488,13.44,73706.3,3.21,2.65,2.61,0,*7D
1505599639.34,11489,13.44,73704.5,3.21,2.61,2.61,0,*78
1505599640.53,11490,13.44,73708.5,3.21,2.65,2.65,0,*70
1505599641.73,11491,13.44,73708.5,3.21,2.55,2.65,0,*72
1505599642.93,11492,13.38,73708.3,3.25,2.65,2.69,0,*7A
1505599644.11,11493,13.38,73712.5,3.25,2.65,2.65,0,*77
1505599645.29,11494,13.38,73708.8,3.25,2.65,2.65,0,*70
1505599646.52,11495,13.38,73716.3,3.25,2.69,2.59,0,*72
1505599647.72,11496,13.44,73718.3,3.25,2.65,2.59,0,*7D
1505599648.93,11497,13.44,73710.8,3.27,2.65,2.65,0,*71
1505599650.14,11498,13.44,73704.0,3.25,2.55,2.55,0,*7C
1505599651.37,11499,13.38,73686.3,3.25,2.59,2.55,0,*71
1505599652.59,11500,13.44,73690.5,3.25,2.59,2.55,0,*70
1505599653.82,11501,13.38,73706.5,3.21,2.55,2.55,0,*79
1505599655.04,11502,13.38,73706.0,3.25,2.59,2.55,0,*72
1505599656.26,11503,13.38,73704.3,3.25,2.55,2.55,0,*7F
1505599657.48,11504,13.44,73700.3,3.21,2.25,2.25,0,*7C
1505599658.72,11505,13.44,73676.3,3.21,2.17,2.05,0,*7E
1505599659.94,11506,13.44,73644.8,3.21,2.05,2.05,0,*7E
1505599661.17,11507,13.38,73660.5,3.25,1.97,2.05,0,*73
1505599662.39,11508,13.44,73630.5,3.21,1.89,1.89,0,*70
1505599663.61,11509,13.44,73616.5,3.21,2.05,2.05,0,*71
1505599664.81,11510,13.44,73612.3,3.21,2.39,2.35,0,*75
1505599665.99,11511,13.38,73596.8,3.21,2.35,2.27,0,*7B
1505599667.16,11512,13.38,73614.3,3.21,2.35,2.35,0,*7B
1505599668.36,11513,13.44,73600.0,3.19,2.35,2.27,0,*72
1505599669.61,11514,13.44,73602.3,3.19,2.13,2.09,0,*7D
1505599670.83,11515,13.44,73622.5,3.17,2.01,2.09,0,*71
1505599672.09,11516,13.38,73624.0,3.19,2.13,2.13,0,*74
1505599673.31,11517,13.38,73636.3,3.17,2.01,2.09,0,*73
1505599674.56,11518,13.38,73636.5,3.19,2.13,2.05,0,*7D
1505599675.81,11519,13.38,73644.8,3.19,2.05,2.05,0,*7B
1505599677.04,11520,13.44,73648.3,3.17,1.97,2.09,0,*7B
1505599678.27,11521,13.44,73650.0,3.17,2.01,2.09,0,*76
1505599679.49,11522,13.38,73650.5,3.17,2.09,2.21,0,*77
1505599680.71,11523,13.38,73654.3,3.17,2.21,2.21,0,*7C
1505599681.94,11524,13.44,73654.8,3.17,2.13,2.13,0,*7B
1505599683.16,11525,13.44,73658.3,3.17,2.21,2.25,0,*7E
1505599684.33,11526,13.44,73672.3,3.17,2.35,2.31,0,*7D
1505599685.58,11527,13.44,73672.5,3.15,2.39,2.39,0,*7A
1505599686.81,11528,13.44,73676.3,3.15,2.31,2.39,0,*7D
1505599688.06,11529,13.44,73684.3,3.15,2.39,2.39,0,*74
1505599689.31,11530,13.38,73694.5,3.15,2.39,2.39,0,*7C
1505599690.54,11531,13.44,73700.3,3.17,2.43,2.43,0,*7F
1505599691.77,11532,13.44,73696.3,3.17,2.47,2.47,0,*7C
1505599693.0,11533,13.44,73698.5,3.17,2.47,2.47,0,*7D
1505599694.25,11534,13.44,73704.3,3.19,2.51,2.51,0,*74
1505599695.49,11535,13.44,73710.8,3.17,2.51,2.51,0,*7B
1505599696.72,11536,13.44,73714.8,3.17,2.47,2.47,0,*78
1505599697.94,11537,13.44,73712.0,3.17,2.47,2.47,0,*79
1505599699.2,11538,13.44,73722.3,3.19,2.47,2.39,0,*71
1505599700.43,11539,13.44,73720.5,3.17,2.43,2.43,0,*77
1505599701.68,11540,13.44,73722.3,3.19,2.47,2.47,0,*77
1505599702.93,11541,13.44,73718.0,3.19,2.47,2.47,0,*76
1505599704.16,11542,13.44,73722.3,3.17,2.47,2.43,0,*7F
1505599705.41,11543,13.38,73706.3,3.19,2.47,2.39,0,*7D
1505599706.62,11544,13.44,73710.5,3.17,2.31,2.25,0,*78
1505599707.85,11545,13.44,73700.8,3.17,2.13,2.13,0,*7C
1505599709.09,11546,13.44,73700.8,3.15,2.09,2.05,0,*71
1505599710.31,11547,13.38,73702.0,3.17,2.21,2.21,0,*7E
1505599711.53,11548,13.44,73702.5,3.17,2.21,2.21,0,*71
1505599712.75,11549,13.44,73696.8,3.17,2.21,2.25,0,*74
1505599713.97,11550,13.44,73706.8,3.17,2.21,2.21,0,*78
1505599715.17,11551,13.38,73720.5,3.17,2.31,2.25,0,*7C
1505599716.39,11552,13.38,73736.0,3.15,2.21,2.27,0,*7E
1505599717.64,11553,13.44,73736.5,3.15,2.39,2.39,0,*79
1505599718.81,11554,13.38,73722.3,3.17,2.35,2.35,0,*7C
1505599719.99,11555,13.44,73740.3,3.17,2.31,2.31,0,*7D
1505599721.22,11556,13.44,73746.3,3.17,2.43,2.43,0,*7E
1505599722.45,11557,13.44,73752.8,3.17,2.47,2.51,0,*78
1505599723.69,11558,13.44,73744.8,3.17,2.51,2.51,0,*70
1505599724.91,11559,13.38,73732.5,3.17,2.47,2.47,0,*71
1505599726.14,11560,13.38,73740.5,3.17,2.47,2.47,0,*7B
1505599727.37,11561,13.44,73748.5,3.17,2.47,2.51,0,*7D
1505599728.61,11562,13.38,73756.5,3.17,2.51,2.51,0,*79
1505599729.84,11563,13.44,73754.8,3.17,2.51,2.47,0,*7F
1505599731.01,11564,13.44,73750.8,3.17,2.35,2.35,0,*7F
1505599732.24,11565,13.44,73736.8,3.19,2.35,2.39,0,*7C
1505599733.44,11566,13.44,73748.5,3.17,2.35,2.43,0,*7C